Time,TemperatureF,DewpointF,PressureIn,WindDirection,WindDirectionDegrees,WindSpeedMPH,WindSpeedGustMPH,Humidity,HourlyPrecipIn,Conditions,Clouds,dailyrainin,SolarRadiationWatts/m^2,SoftwareType,DateUTC
2013-10-05 00:03:00,67.0,24.5,30.02,ESE,121,0.0,0.0,20,0.00,,,0.00,0000,Weather View 32 v70,2013-10-05 07:03:00,
2013-10-05 00:08:00,66.7,24.3,30.02,ESE,121,0.0,0.0,20,0.00,,,0.00,0000,Weather View 32 v70,2013-10-05 07:08:00,
2013-10-05 00:13:00,66.4,24.0,30.02,ESE,121,0.0,1.0,20,0.00,,,0.00,0000,Weather View 32 v70,2013-10-05 07:13:00,
2013-10-05 00:18:00,66.1,23.8,30.02,ESE,121,0.0,0.0,20,0.00,,,0.00,0000,Weather View 32 v70,2013-10-05 07:18:00,
2013-10-05 00:23:00,65.9,23.6,30.02,ESE,121,0.0,0.0,20,0.00,,,0.00,0000,Weather View 32 v70,2013-10-05 07:23:00,
2013-10-05 00:28:00,65.7,24.6,30.03,ESE,121,0.0,0.0,21,0.00,,,0.00,0000,Weather View 32 v70,2013-10-05 07:28:00,
2013-10-05 00:33:00,65.6,24.5,30.02,ESE,121,0.0,0.0,21,0.00,,,0.00,0000,Weather View 32 v70,2013-10-05 07:33:00,
2013-10-05 00:38:00,65.5,24.4,30.03,ESE,121,0.0,0.0,21,0.00,,,0.00,0000,Weather View 32 v70,2013-10-05 07:38:00,
2013-10-05 00:43:00,65.3,24.3,30.02,ESE,121,0.0,0.0,21,0.00,,,0.00,0000,Weather View 32 v70,2013-10-05 07:43:00,
2013-10-05 00:48:00,65.2,23.0,30.02,ESE,121,0.0,2.0,20,0.00,,,0.00,0000,Weather View 32 v70,2013-10-05 07:48:00,
2013-10-05 00:53:00,65.2,24.2,30.02,ESE,121,0.0,0.0,21,0.00,,,0.00,0000,Weather View 32 v70,2013-10-05 07:53:00,
2013-10-05 00:58:00,65.0,24.0,30.02,ESE,121,0.0,0.0,21,0.00,,,0.00,0000,Weather View 32 v70,2013-10-05 07:58:00,
2013-10-05 01:03:00,64.9,23.9,30.02,ESE,121,2.0,2.0,21,0.00,,,0.00,0000,Weather View 32 v70,2013-10-05 08:03:00,
2013-10-05 01:08:00,64.8,23.9,30.03,ESE,121,0.0,0.0,21,0.00,,,0.00,0000,Weather View 32 v70,2013-10-05 08:08:00,
2013-10-05 01:13:00,64.8,23.9,30.03,ESE,121,0.0,0.0,21,0.00,,,0.00,0000,Weather View 32 v70,2013-10-05 08:13:00,
2013-10-05 01:18:00,64.9,23.9,30.03,NW,319,0.0,0.0,21,0.00,,,0.00,0000,Weather View 32 v70,2013-10-05 08:18:00,
2013-10-05 01:23:00,65.0,24.0,30.03,NW,320,0.0,0.0,21,0.00,,,0.00,0000,Weather View 32 v70,2013-10-05 08:23:00,
2013-10-05 01:28:00,65.0,22.9,30.03,NW,320,0.0,0.0,20,0.00,,,0.00,0000,Weather View 32 v70,2013-10-05 08:28:00,
2013-10-05 01:33:00,65.0,22.9,30.04,NW,319,0.0,0.0,20,0.00,,,0.00,0000,Weather View 32 v70,2013-10-05 08:33:00,
2013-10-05 01:38:00,65.1,22.9,30.03,NW,314,0.0,4.0,20,0.00,,,0.00,0000,Weather View 32 v70,2013-10-05 08:38:00,
2013-10-05 01:43:00,65.2,24.2,30.04,SE,134,1.0,6.0,21,0.00,,,0.00,0000,Weather View 32 v70,2013-10-05 08:43:00,
2013-10-05 01:48:00,64.7,24.9,30.04,SE,136,0.0,0.0,22,0.00,,,0.00,0000,Weather View 32 v70,2013-10-05 08:48:00,
2013-10-05 01:53:00,64.4,23.5,30.04,SE,136,0.0,0.0,21,0.00,,,0.00,0000,Weather View 32 v70,2013-10-05 08:53:00,
2013-10-05 01:58:00,64.3,23.4,30.03,SE,136,0.0,0.0,21,0.00,,,0.00,0000,Weather View 32 v70,2013-10-05 08:58:00,
2013-10-05 02:03:00,64.3,23.4,30.04,NW,305,0.0,1.0,21,0.00,,,0.00,0000,Weather View 32 v70,2013-10-05 09:03:00,
2013-10-05 02:08:00,64.4,22.4,30.04,NW,304,0.0,0.0,20,0.00,,,0.00,0000,Weather View 32 v70,2013-10-05 09:08:00,
2013-10-05 02:13:00,64.6,23.7,30.04,NW,304,0.0,0.0,21,0.00,,,0.00,0000,Weather View 32 v70,2013-10-05 09:13:00,
2013-10-05 02:18:00,64.7,23.8,30.04,ESE,117,0.0,0.0,21,0.00,,,0.00,0000,Weather View 32 v70,2013-10-05 09:18:00,
2013-10-05 02:23:00,64.7,23.8,30.04,ESE,117,0.0,0.0,21,0.00,,,0.00,0000,Weather View 32 v70,2013-10-05 09:23:00,
2013-10-05 02:28:00,64.5,25.8,30.04,ESE,117,0.0,1.0,23,0.00,,,0.00,0000,Weather View 32 v70,2013-10-05 09:28:00,
2013-10-05 02:33:00,64.1,24.4,30.04,ESE,117,0.0,0.0,22,0.00,,,0.00,0000,Weather View 32 v70,2013-10-05 09:33:00,
2013-10-05 02:38:00,63.8,24.1,30.04,ESE,117,0.0,1.0,22,0.00,,,0.00,0000,Weather View 32 v70,2013-10-05 09:38:00,
2013-10-05 02:43:00,63.4,23.8,30.04,ESE,117,0.0,0.0,22,0.00,,,0.00,0000,Weather View 32 v70,2013-10-05 09:43:00,
2013-10-05 02:48:00,63.2,22.5,30.04,ESE,117,0.0,0.0,21,0.00,,,0.00,0000,Weather View 32 v70,2013-10-05 09:48:00,
2013-10-05 02:53:00,63.2,23.6,30.04,ESE,117,0.0,0.0,22,0.00,,,0.00,0000,Weather View 32 v70,2013-10-05 09:53:00,
2013-10-05 02:58:00,63.2,22.5,30.04,ESE,117,0.0,0.0,21,0.00,,,0.00,0000,Weather View 32 v70,2013-10-05 09:58:00,
2013-10-05 03:03:00,63.3,22.6,30.04,ESE,117,0.0,0.0,21,0.00,,,0.00,0000,Weather View 32 v70,2013-10-05 10:03:00,
2013-10-05 03:08:00,63.5,23.9,30.04,ESE,117,0.0,0.0,22,0.00,,,0.00,0000,Weather View 32 v70,2013-10-05 10:08:00,
2013-10-05 03:13:00,63.6,22.9,30.04,ESE,117,0.0,0.0,21,0.00,,,0.00,0000,Weather View 32 v70,2013-10-05 10:13:00,
2013-10-05 03:18:00,63.8,23.0,30.04,ESE,117,0.0,1.0,21,0.00,,,0.00,0000,Weather View 32 v70,2013-10-05 10:18:00,
2013-10-05 03:23:00,64.0,23.2,30.04,ESE,117,0.0,0.0,21,0.00,,,0.00,0000,Weather View 32 v70,2013-10-05 10:23:00,
2013-10-05 03:28:00,64.1,23.3,30.04,ESE,117,0.0,0.0,21,0.00,,,0.00,0000,Weather View 32 v70,2013-10-05 10:28:00,
2013-10-05 03:33:00,64.1,23.3,30.04,ESE,117,0.0,0.0,21,0.00,,,0.00,0000,Weather View 32 v70,2013-10-05 10:33:00,
2013-10-05 03:38:00,64.1,23.3,30.03,ESE,117,0.0,1.0,21,0.00,,,0.00,0000,Weather View 32 v70,2013-10-05 10:38:00,
2013-10-05 03:43:00,64.0,22.0,30.03,ESE,117,0.0,1.0,20,0.00,,,0.00,0000,Weather View 32 v70,2013-10-05 10:43:00,
2013-10-05 03:48:00,64.2,23.4,30.03,ESE,117,0.0,1.0,21,0.00,,,0.00,0000,Weather View 32 v70,2013-10-05 10:48:00,
2013-10-05 03:53:00,64.3,24.6,30.03,ESE,117,0.0,0.0,22,0.00,,,0.00,0000,Weather View 32 v70,2013-10-05 10:53:00,
2013-10-05 03:58:00,63.9,24.2,30.03,SE,126,0.0,1.0,22,0.00,,,0.00,0000,Weather View 32 v70,2013-10-05 10:58:00,
2013-10-05 04:03:00,63.7,24.1,30.03,ENE,64,0.0,1.0,22,0.00,,,0.00,0000,Weather View 32 v70,2013-10-05 11:03:00,
2013-10-05 04:08:00,63.5,23.9,30.03,ENE,69,0.0,1.0,22,0.00,,,0.00,0000,Weather View 32 v70,2013-10-05 11:08:00,
2013-10-05 04:13:00,63.2,23.6,30.03,ENE,71,0.0,2.0,22,0.00,,,0.00,0000,Weather View 32 v70,2013-10-05 11:13:00,
2013-10-05 04:18:00,63.0,23.5,30.03,ENE,71,0.0,0.0,22,0.00,,,0.00,0000,Weather View 32 v70,2013-10-05 11:18:00,
2013-10-05 04:23:00,63.0,23.5,30.03,ENE,71,0.0,0.0,22,0.00,,,0.00,0000,Weather View 32 v70,2013-10-05 11:23:00,
2013-10-05 04:28:00,63.0,22.4,30.04,ENE,71,0.0,0.0,21,0.00,,,0.00,0000,Weather View 32 v70,2013-10-05 11:28:00,
2013-10-05 04:33:00,63.1,22.5,30.03,ENE,71,0.0,0.0,21,0.00,,,0.00,0000,Weather View 32 v70,2013-10-05 11:33:00,
2013-10-05 04:38:00,63.3,22.6,30.04,ENE,67,0.0,0.0,21,0.00,,,0.00,0000,Weather View 32 v70,2013-10-05 11:38:00,
2013-10-05 04:43:00,63.4,23.8,30.04,ENE,67,0.0,0.0,22,0.00,,,0.00,0000,Weather View 32 v70,2013-10-05 11:43:00,
2013-10-05 04:48:00,63.6,24.0,30.04,ENE,67,0.0,1.0,22,0.00,,,0.00,0000,Weather View 32 v70,2013-10-05 11:48:00,
2013-10-05 04:53:00,63.7,23.0,30.03,NNW,334,0.0,0.0,21,0.00,,,0.00,0000,Weather View 32 v70,2013-10-05 11:53:00,
2013-10-05 04:58:00,63.8,24.1,30.04,NNW,334,0.0,0.0,22,0.00,,,0.00,0000,Weather View 32 v70,2013-10-05 11:58:00,
2013-10-05 05:03:00,63.7,24.1,30.04,NNW,334,0.0,0.0,22,0.00,,,0.00,0000,Weather View 32 v70,2013-10-05 12:03:00,
2013-10-05 05:09:00,63.6,24.0,30.04,NNW,334,0.0,1.0,22,0.00,,,0.00,0000,Weather View 32 v70,2013-10-05 12:09:00,
2013-10-05 05:14:00,63.4,23.8,30.04,NNW,334,0.0,1.0,22,0.00,,,0.00,0000,Weather View 32 v70,2013-10-05 12:14:00,
2013-10-05 05:19:00,63.3,23.7,30.04,NNW,334,0.0,0.0,22,0.00,,,0.00,0000,Weather View 32 v70,2013-10-05 12:19:00,
2013-10-05 05:24:00,63.2,23.6,30.04,NNW,334,0.0,0.0,22,0.00,,,0.00,0000,Weather View 32 v70,2013-10-05 12:24:00,
2013-10-05 05:29:00,63.1,23.6,30.04,NNW,334,0.0,0.0,22,0.00,,,0.00,0000,Weather View 32 v70,2013-10-05 12:29:00,
2013-10-05 05:34:00,63.1,22.5,30.04,ESE,103,0.0,1.0,21,0.00,,,0.00,0000,Weather View 32 v70,2013-10-05 12:34:00,
2013-10-05 05:39:00,63.1,23.6,30.05,SE,136,0.0,0.0,22,0.00,,,0.00,0000,Weather View 32 v70,2013-10-05 12:39:00,
2013-10-05 05:44:00,63.2,22.5,30.05,SE,136,0.0,0.0,21,0.00,,,0.00,0000,Weather View 32 v70,2013-10-05 12:44:00,
2013-10-05 05:49:00,63.2,23.6,30.04,SE,136,0.0,0.0,22,0.00,,,0.00,0000,Weather View 32 v70,2013-10-05 12:49:00,
2013-10-05 05:54:00,63.2,22.5,30.04,SE,136,0.0,0.0,21,0.00,,,0.00,0000,Weather View 32 v70,2013-10-05 12:54:00,
2013-10-05 05:59:00,63.2,24.7,30.04,SE,136,0.0,0.0,23,0.00,,,0.00,0000,Weather View 32 v70,2013-10-05 12:59:00,
2013-10-05 06:04:00,63.1,23.6,30.05,SE,136,0.0,0.0,22,0.00,,,0.00,0000,Weather View 32 v70,2013-10-05 13:04:00,
2013-10-05 06:09:00,62.8,24.4,30.05,NW,313,0.0,1.0,23,0.00,,,0.00,0000,Weather View 32 v70,2013-10-05 13:09:00,
2013-10-05 06:14:00,62.6,24.2,30.05,NW,313,0.0,1.0,23,0.00,,,0.00,0000,Weather View 32 v70,2013-10-05 13:14:00,
2013-10-05 06:19:00,62.3,24.0,30.05,NNW,344,0.0,0.0,23,0.00,,,0.00,0000,Weather View 32 v70,2013-10-05 13:19:00,
2013-10-05 06:24:00,62.1,22.7,30.06,NNW,344,0.0,0.0,22,0.00,,,0.00,0000,Weather View 32 v70,2013-10-05 13:24:00,
2013-10-05 06:29:00,62.0,23.7,30.06,NNW,340,0.0,0.0,23,0.00,,,0.00,0000,Weather View 32 v70,2013-10-05 13:29:00,
2013-10-05 06:34:00,62.0,22.6,30.06,NNW,340,0.0,0.0,22,0.00,,,0.00,0000,Weather View 32 v70,2013-10-05 13:34:00,
2013-10-05 06:39:00,62.0,22.6,30.06,NNW,340,0.0,1.0,22,0.00,,,0.00,0000,Weather View 32 v70,2013-10-05 13:39:00,
2013-10-05 06:44:00,62.1,23.8,30.06,NNW,340,0.0,1.0,23,0.00,,,0.00,0000,Weather View 32 v70,2013-10-05 13:44:00,
2013-10-05 06:49:00,62.2,22.8,30.06,NW,318,4.0,5.0,22,0.00,,,0.00,0000,Weather View 32 v70,2013-10-05 13:49:00,
2013-10-05 06:54:00,62.4,24.0,30.06,NNE,22,0.0,0.0,23,0.00,,,0.00,0000,Weather View 32 v70,2013-10-05 13:54:00,
2013-10-05 06:59:00,62.4,24.0,30.07,NW,311,0.0,0.0,23,0.00,,,0.00,0005,Weather View 32 v70,2013-10-05 13:59:00,
2013-10-05 07:04:00,62.3,25.0,30.07,NW,314,0.0,0.0,24,0.00,,,0.00,0007,Weather View 32 v70,2013-10-05 14:04:00,
2013-10-05 07:09:00,62.3,24.0,30.07,NW,310,0.0,4.0,23,0.00,,,0.00,0009,Weather View 32 v70,2013-10-05 14:09:00,
2013-10-05 07:14:00,62.2,23.9,30.07,NW,311,1.0,0.0,23,0.00,,,0.00,0028,Weather View 32 v70,2013-10-05 14:14:00,
2013-10-05 07:19:00,62.4,23.0,30.07,NE,36,0.0,6.0,22,0.00,,,0.00,0037,Weather View 32 v70,2013-10-05 14:19:00,
2013-10-05 07:24:00,62.9,25.5,30.07,ESE,113,0.0,1.0,24,0.00,,,0.00,0040,Weather View 32 v70,2013-10-05 14:24:00,
2013-10-05 07:29:00,63.3,24.8,30.07,ESE,113,0.0,0.0,23,0.00,,,0.00,0049,Weather View 32 v70,2013-10-05 14:29:00,
2013-10-05 07:34:00,63.6,25.0,30.07,ESE,113,0.0,2.0,23,0.00,,,0.00,0054,Weather View 32 v70,2013-10-05 14:34:00,
2013-10-05 07:39:00,64.0,24.3,30.08,NW,318,0.0,4.0,22,0.00,,,0.00,0083,Weather View 32 v70,2013-10-05 14:39:00,
2013-10-05 07:44:00,64.5,26.8,30.08,NW,314,0.0,4.0,24,0.00,,,0.00,0076,Weather View 32 v70,2013-10-05 14:44:00,
2013-10-05 07:49:00,65.0,28.2,30.08,NW,315,1.0,1.0,25,0.00,,,0.00,0084,Weather View 32 v70,2013-10-05 14:49:00,
2013-10-05 07:54:00,65.4,26.6,30.08,NW,315,0.0,1.0,23,0.00,,,0.00,0125,Weather View 32 v70,2013-10-05 14:54:00,
2013-10-05 07:59:00,65.8,27.9,30.08,NW,315,0.0,1.0,24,0.00,,,0.00,0125,Weather View 32 v70,2013-10-05 14:59:00,
2013-10-05 08:04:00,66.2,29.3,30.09,NW,313,0.0,0.0,25,0.00,,,0.00,0118,Weather View 32 v70,2013-10-05 15:04:00,
2013-10-05 08:09:00,66.6,29.6,30.09,NW,313,0.0,0.0,25,0.00,,,0.00,0146,Weather View 32 v70,2013-10-05 15:09:00,
2013-10-05 08:14:00,66.8,29.8,30.09,NW,313,0.0,2.0,25,0.00,,,0.00,0109,Weather View 32 v70,2013-10-05 15:14:00,
2013-10-05 08:19:00,67.1,30.0,30.09,NW,313,0.0,1.0,25,0.00,,,0.00,0107,Weather View 32 v70,2013-10-05 15:19:00,
2013-10-05 08:24:00,67.6,32.4,30.09,ESE,117,0.0,0.0,27,0.00,,,0.00,0123,Weather View 32 v70,2013-10-05 15:24:00,
2013-10-05 08:29:00,67.7,29.5,30.09,ESE,114,0.0,0.0,24,0.00,,,0.00,0188,Weather View 32 v70,2013-10-05 15:29:00,
2013-10-05 08:34:00,67.9,28.6,30.09,ESE,114,0.0,0.0,23,0.00,,,0.00,0315,Weather View 32 v70,2013-10-05 15:34:00,
2013-10-05 08:39:00,68.2,31.9,30.09,NW,304,0.0,0.0,26,0.00,,,0.00,0327,Weather View 32 v70,2013-10-05 15:39:00,
2013-10-05 08:44:00,68.5,32.2,30.09,NW,304,0.0,0.0,26,0.00,,,0.00,0271,Weather View 32 v70,2013-10-05 15:44:00,
2013-10-05 08:49:00,68.9,31.5,30.09,NW,304,0.0,0.0,25,0.00,,,0.00,0323,Weather View 32 v70,2013-10-05 15:49:00,
2013-10-05 08:54:00,69.2,31.8,30.09,NW,304,0.0,0.0,25,0.00,,,0.00,0093,Weather View 32 v70,2013-10-05 15:54:00,
2013-10-05 08:59:00,69.8,32.3,30.09,NW,306,0.0,0.0,25,0.00,,,0.00,0123,Weather View 32 v70,2013-10-05 15:59:00,
2013-10-05 09:04:00,70.4,32.8,30.10,NW,306,0.0,0.0,25,0.00,,,0.00,0394,Weather View 32 v70,2013-10-05 16:04:00,
2013-10-05 09:09:00,71.0,33.3,30.09,NW,306,0.0,0.0,25,0.00,,,0.00,0436,Weather View 32 v70,2013-10-05 16:09:00,
2013-10-05 09:14:00,71.5,31.7,30.10,NW,306,0.0,0.0,23,0.00,,,0.00,0448,Weather View 32 v70,2013-10-05 16:14:00,
2013-10-05 09:19:00,73.2,33.1,30.10,WNW,298,0.0,0.0,23,0.00,,,0.00,0466,Weather View 32 v70,2013-10-05 16:19:00,
2013-10-05 09:24:00,74.2,35.0,30.10,WNW,298,0.0,0.0,24,0.00,,,0.00,0485,Weather View 32 v70,2013-10-05 16:24:00,
2013-10-05 09:29:00,74.7,33.2,30.10,WNW,298,0.0,0.0,22,0.00,,,0.00,0497,Weather View 32 v70,2013-10-05 16:29:00,
2013-10-05 09:34:00,75.1,35.8,30.10,WNW,298,0.0,1.0,24,0.00,,,0.00,0211,Weather View 32 v70,2013-10-05 16:34:00,
2013-10-05 09:39:00,75.7,35.2,30.10,WNW,298,0.0,0.0,23,0.00,,,0.00,0288,Weather View 32 v70,2013-10-05 16:39:00,
2013-10-05 09:44:00,76.5,34.7,30.10,WNW,298,0.0,0.0,22,0.00,,,0.00,0543,Weather View 32 v70,2013-10-05 16:44:00,
2013-10-05 09:49:00,77.1,34.1,30.10,WNW,298,0.0,1.0,21,0.00,,,0.00,0559,Weather View 32 v70,2013-10-05 16:49:00,
2013-10-05 09:54:00,77.7,33.3,30.10,NW,317,0.0,1.0,20,0.00,,,0.00,0573,Weather View 32 v70,2013-10-05 16:54:00,
2013-10-05 09:59:00,78.7,32.9,30.10,NW,317,0.0,0.0,19,0.00,,,0.00,0589,Weather View 32 v70,2013-10-05 16:59:00,
2013-10-05 10:04:00,79.3,32.0,30.09,NW,317,0.0,0.0,18,0.00,,,0.00,0603,Weather View 32 v70,2013-10-05 17:04:00,
2013-10-05 10:09:00,79.8,32.4,30.09,NW,317,0.0,0.0,18,0.00,,,0.00,0617,Weather View 32 v70,2013-10-05 17:09:00,
2013-10-05 10:14:00,80.3,31.4,30.09,NW,317,0.0,0.0,17,0.00,,,0.00,0631,Weather View 32 v70,2013-10-05 17:14:00,
2013-10-05 10:19:00,80.9,30.4,30.09,NW,317,0.0,1.0,16,0.00,,,0.00,0645,Weather View 32 v70,2013-10-05 17:19:00,
2013-10-05 10:24:00,81.6,32.4,30.10,NW,317,0.0,1.0,17,0.00,,,0.00,0654,Weather View 32 v70,2013-10-05 17:24:00,
2013-10-05 10:29:00,82.4,33.1,30.09,NW,317,0.0,0.0,17,0.00,,,0.00,0670,Weather View 32 v70,2013-10-05 17:29:00,
2013-10-05 10:34:00,82.9,33.5,30.09,NW,317,0.0,0.0,17,0.00,,,0.00,0680,Weather View 32 v70,2013-10-05 17:34:00,
2013-10-05 10:39:00,83.2,32.2,30.09,NW,316,0.0,1.0,16,0.00,,,0.00,0693,Weather View 32 v70,2013-10-05 17:39:00,
2013-10-05 10:44:00,83.6,32.5,30.09,NW,315,0.0,0.0,16,0.00,,,0.00,0701,Weather View 32 v70,2013-10-05 17:44:00,
2013-10-05 10:49:00,83.8,32.7,30.08,NW,315,0.0,0.0,16,0.00,,,0.00,0715,Weather View 32 v70,2013-10-05 17:49:00,
2013-10-05 10:54:00,84.2,34.5,30.09,NW,304,0.0,1.0,17,0.00,,,0.00,0726,Weather View 32 v70,2013-10-05 17:54:00,
2013-10-05 10:59:00,84.7,34.9,30.08,NW,304,0.0,0.0,17,0.00,,,0.00,0737,Weather View 32 v70,2013-10-05 17:59:00,
2013-10-05 11:04:00,84.9,33.6,30.08,WNW,300,0.0,1.0,16,0.00,,,0.00,0744,Weather View 32 v70,2013-10-05 18:04:00,
2013-10-05 11:09:00,84.9,33.6,30.08,WNW,301,0.0,1.0,16,0.00,,,0.00,0752,Weather View 32 v70,2013-10-05 18:09:00,
2013-10-05 11:14:00,85.0,32.1,30.08,WNW,301,0.0,0.0,15,0.00,,,0.00,0759,Weather View 32 v70,2013-10-05 18:14:00,
2013-10-05 11:19:00,84.8,31.9,30.07,WNW,300,0.0,0.0,15,0.00,,,0.00,0766,Weather View 32 v70,2013-10-05 18:19:00,
2013-10-05 11:24:00,85.1,32.1,30.07,WNW,300,0.0,0.0,15,0.00,,,0.00,0775,Weather View 32 v70,2013-10-05 18:24:00,
2013-10-05 11:29:00,85.3,33.9,30.07,WNW,301,0.0,0.0,16,0.00,,,0.00,0779,Weather View 32 v70,2013-10-05 18:29:00,
2013-10-05 11:34:00,85.6,32.5,30.07,NW,313,0.0,4.0,15,0.00,,,0.00,0780,Weather View 32 v70,2013-10-05 18:34:00,
2013-10-05 11:39:00,86.0,32.8,30.07,NW,306,0.0,1.0,15,0.00,,,0.00,0772,Weather View 32 v70,2013-10-05 18:39:00,
2013-10-05 11:44:00,86.5,33.2,30.07,NW,307,0.0,1.0,15,0.00,,,0.00,0279,Weather View 32 v70,2013-10-05 18:44:00,
2013-10-05 11:49:00,86.8,33.5,30.07,NW,309,0.0,0.0,15,0.00,,,0.00,0160,Weather View 32 v70,2013-10-05 18:49:00,
2013-10-05 11:54:00,87.1,33.7,30.06,NW,309,1.0,1.0,15,0.00,,,0.00,0077,Weather View 32 v70,2013-10-05 18:54:00,
2013-10-05 11:59:00,87.2,37.0,30.06,NW,310,0.0,0.0,17,0.00,,,0.00,0069,Weather View 32 v70,2013-10-05 18:59:00,
2013-10-05 12:04:00,87.5,32.3,30.06,East,89,0.0,2.0,14,0.00,,,0.00,0072,Weather View 32 v70,2013-10-05 19:04:00,
2013-10-05 12:09:00,87.5,32.3,30.06,East,90,0.0,0.0,14,0.00,,,0.00,0063,Weather View 32 v70,2013-10-05 19:09:00,
2013-10-05 12:14:00,87.5,34.0,30.06,ENE,71,1.0,0.0,15,0.00,,,0.00,0063,Weather View 32 v70,2013-10-05 19:14:00,
2013-10-05 12:19:00,87.4,32.2,30.05,ENE,71,0.0,1.0,14,0.00,,,0.00,0065,Weather View 32 v70,2013-10-05 19:19:00,
2013-10-05 12:24:00,87.7,34.2,30.05,ENE,71,0.0,0.0,15,0.00,,,0.00,0062,Weather View 32 v70,2013-10-05 19:24:00,
2013-10-05 12:29:00,88.1,34.5,30.05,ENE,71,0.0,0.0,15,0.00,,,0.00,0067,Weather View 32 v70,2013-10-05 19:29:00,
2013-10-05 12:34:00,88.4,33.0,30.05,West,281,0.0,0.0,14,0.00,,,0.00,0062,Weather View 32 v70,2013-10-05 19:34:00,
2013-10-05 12:39:00,88.8,35.1,30.05,West,281,0.0,0.0,15,0.00,,,0.00,0062,Weather View 32 v70,2013-10-05 19:39:00,
2013-10-05 12:44:00,89.1,33.6,30.04,NW,324,0.0,2.0,14,0.00,,,0.00,0062,Weather View 32 v70,2013-10-05 19:44:00,
2013-10-05 12:49:00,89.4,33.8,30.04,WNW,302,0.0,1.0,14,0.00,,,0.00,0065,Weather View 32 v70,2013-10-05 19:49:00,
2013-10-05 12:54:00,89.5,32.0,30.04,NW,306,1.0,0.0,13,0.00,,,0.00,0076,Weather View 32 v70,2013-10-05 19:54:00,
2013-10-05 12:59:00,89.4,33.8,30.03,NW,318,0.0,4.0,14,0.00,,,0.00,0065,Weather View 32 v70,2013-10-05 19:59:00,
2013-10-05 13:04:00,89.3,31.9,30.03,NW,319,0.0,0.0,13,0.00,,,0.00,0060,Weather View 32 v70,2013-10-05 20:04:00,
2013-10-05 13:09:00,89.3,33.7,30.03,NW,318,0.0,0.0,14,0.00,,,0.00,0062,Weather View 32 v70,2013-10-05 20:09:00,
2013-10-05 13:14:00,89.2,31.8,30.03,NW,318,0.0,1.0,13,0.00,,,0.00,0060,Weather View 32 v70,2013-10-05 20:14:00,
2013-10-05 13:19:00,89.3,31.9,30.03,NW,307,0.0,0.0,13,0.00,,,0.00,0060,Weather View 32 v70,2013-10-05 20:19:00,
2013-10-05 13:24:00,89.2,33.6,30.03,NNW,331,0.0,4.0,14,0.00,,,0.00,0060,Weather View 32 v70,2013-10-05 20:24:00,
2013-10-05 13:29:00,88.9,29.6,30.02,ESE,123,0.0,2.0,12,0.00,,,0.00,0060,Weather View 32 v70,2013-10-05 20:29:00,
2013-10-05 13:34:00,89.0,33.5,30.02,WNW,290,0.0,2.0,14,0.00,,,0.00,0060,Weather View 32 v70,2013-10-05 20:34:00,
2013-10-05 13:39:00,89.5,33.9,30.02,WNW,292,0.0,1.0,14,0.00,,,0.00,0060,Weather View 32 v70,2013-10-05 20:39:00,
2013-10-05 13:44:00,89.8,32.3,30.01,NW,310,0.0,7.0,13,0.00,,,0.00,0060,Weather View 32 v70,2013-10-05 20:44:00,
2013-10-05 13:50:00,89.9,32.3,30.01,NW,315,0.0,1.0,13,0.00,,,0.00,0060,Weather View 32 v70,2013-10-05 20:50:00,
2013-10-05 13:55:00,89.9,32.3,30.01,NNE,29,1.0,1.0,13,0.00,,,0.00,0060,Weather View 32 v70,2013-10-05 20:55:00,
2013-10-05 14:00:00,89.6,34.0,30.01,SE,138,0.0,1.0,14,0.00,,,0.00,0067,Weather View 32 v70,2013-10-05 21:00:00,
2013-10-05 14:05:00,89.8,34.1,30.01,SE,138,0.0,0.0,14,0.00,,,0.00,0060,Weather View 32 v70,2013-10-05 21:05:00,
2013-10-05 14:10:00,89.9,34.2,30.01,SE,138,0.0,0.0,14,0.00,,,0.00,0058,Weather View 32 v70,2013-10-05 21:10:00,
2013-10-05 14:15:00,90.2,36.2,30.01,NW,318,0.0,1.0,15,0.00,,,0.00,0058,Weather View 32 v70,2013-10-05 21:15:00,
2013-10-05 14:20:00,90.5,32.8,30.00,NW,317,0.0,1.0,13,0.00,,,0.00,0058,Weather View 32 v70,2013-10-05 21:20:00,
2013-10-05 14:25:00,90.7,36.6,30.01,NW,326,0.0,1.0,15,0.00,,,0.00,0058,Weather View 32 v70,2013-10-05 21:25:00,
2013-10-05 14:30:00,91.0,33.2,30.00,NW,326,0.0,0.0,13,0.00,,,0.00,0058,Weather View 32 v70,2013-10-05 21:30:00,
2013-10-05 14:35:00,90.7,33.0,30.01,NW,326,0.0,1.0,13,0.00,,,0.00,0058,Weather View 32 v70,2013-10-05 21:35:00,
2013-10-05 14:40:00,90.3,34.5,30.01,NW,315,0.0,0.0,14,0.00,,,0.00,0058,Weather View 32 v70,2013-10-05 21:40:00,
2013-10-05 14:45:00,90.2,32.6,30.00,NW,315,0.0,0.0,13,0.00,,,0.00,0058,Weather View 32 v70,2013-10-05 21:45:00,
2013-10-05 14:50:00,90.1,34.3,30.00,NW,313,0.0,1.0,14,0.00,,,0.00,0060,Weather View 32 v70,2013-10-05 21:50:00,
2013-10-05 14:55:00,90.2,34.4,30.01,NW,314,0.0,1.0,14,0.00,,,0.00,0060,Weather View 32 v70,2013-10-05 21:55:00,
2013-10-05 15:00:00,90.0,32.4,30.01,NW,313,0.0,1.0,13,0.00,,,0.00,0058,Weather View 32 v70,2013-10-05 22:00:00,
2013-10-05 15:05:00,89.9,34.2,30.01,NW,321,0.0,0.0,14,0.00,,,0.00,0056,Weather View 32 v70,2013-10-05 22:05:00,
2013-10-05 15:10:00,89.9,32.3,30.00,WNW,289,0.0,1.0,13,0.00,,,0.00,0058,Weather View 32 v70,2013-10-05 22:10:00,
2013-10-05 15:15:00,89.9,32.3,30.01,NW,315,0.0,0.0,13,0.00,,,0.00,0056,Weather View 32 v70,2013-10-05 22:15:00,
2013-10-05 15:20:00,89.6,32.1,30.01,WNW,300,5.0,5.0,13,0.00,,,0.00,0056,Weather View 32 v70,2013-10-05 22:20:00,
2013-10-05 15:25:00,89.2,29.8,30.00,SE,135,0.0,6.0,12,0.00,,,0.00,0056,Weather View 32 v70,2013-10-05 22:25:00,
2013-10-05 15:30:00,88.8,29.5,30.00,SE,144,0.0,4.0,12,0.00,,,0.00,0054,Weather View 32 v70,2013-10-05 22:30:00,
2013-10-05 15:35:00,88.6,29.4,30.00,SE,144,0.0,1.0,12,0.00,,,0.00,0063,Weather View 32 v70,2013-10-05 22:35:00,
2013-10-05 15:40:00,88.8,33.3,30.01,SSE,149,1.0,0.0,14,0.00,,,0.00,0054,Weather View 32 v70,2013-10-05 22:40:00,
2013-10-05 15:45:00,88.9,33.4,30.01,SSE,156,0.0,1.0,14,0.00,,,0.00,0056,Weather View 32 v70,2013-10-05 22:45:00,
2013-10-05 15:50:00,89.1,35.3,30.01,NW,317,0.0,0.0,15,0.00,,,0.00,0053,Weather View 32 v70,2013-10-05 22:50:00,
2013-10-05 15:55:00,89.3,35.5,30.00,NW,309,0.0,1.0,15,0.00,,,0.00,0081,Weather View 32 v70,2013-10-05 22:55:00,
2013-10-05 16:00:00,89.4,35.5,30.00,NW,315,1.0,1.0,15,0.00,,,0.00,0053,Weather View 32 v70,2013-10-05 23:00:00,
2013-10-05 16:05:00,89.4,35.5,30.00,WNW,298,0.0,7.0,15,0.00,,,0.00,0051,Weather View 32 v70,2013-10-05 23:05:00,
2013-10-05 16:10:00,89.5,35.6,30.00,NW,321,0.0,0.0,15,0.00,,,0.00,0051,Weather View 32 v70,2013-10-05 23:10:00,
2013-10-05 16:15:00,89.3,37.1,30.00,WNW,299,0.0,2.0,16,0.00,,,0.00,0063,Weather View 32 v70,2013-10-05 23:15:00,
2013-10-05 16:21:00,89.3,37.1,30.01,NW,309,0.0,1.0,16,0.00,,,0.00,0063,Weather View 32 v70,2013-10-05 23:21:00,
2013-10-05 16:26:00,88.8,35.1,30.01,NW,306,0.0,0.0,15,0.00,,,0.00,0049,Weather View 32 v70,2013-10-05 23:26:00,
2013-10-05 16:31:00,88.3,36.3,30.01,NW,306,0.0,0.0,16,0.00,,,0.00,0047,Weather View 32 v70,2013-10-05 23:31:00,
2013-10-05 16:36:00,88.1,34.5,30.00,WNW,303,0.0,0.0,15,0.00,,,0.00,0047,Weather View 32 v70,2013-10-05 23:36:00,
2013-10-05 16:41:00,87.9,34.3,30.01,NW,311,0.0,0.0,15,0.00,,,0.00,0047,Weather View 32 v70,2013-10-05 23:41:00,
2013-10-05 16:46:00,87.8,35.9,30.01,WNW,303,0.0,4.0,16,0.00,,,0.00,0046,Weather View 32 v70,2013-10-05 23:46:00,
2013-10-05 16:51:00,87.7,35.8,30.01,NW,323,0.0,2.0,16,0.00,,,0.00,0049,Weather View 32 v70,2013-10-05 23:51:00,
2013-10-05 16:56:00,87.6,34.1,30.01,NW,323,0.0,0.0,15,0.00,,,0.00,0318,Weather View 32 v70,2013-10-05 23:56:00,
2013-10-05 17:01:00,87.3,35.5,30.01,NNW,335,0.0,0.0,16,0.00,,,0.00,0074,Weather View 32 v70,2013-10-06 00:01:00,
2013-10-05 17:06:00,87.1,33.7,30.01,NNW,335,0.0,0.0,15,0.00,,,0.00,0042,Weather View 32 v70,2013-10-06 00:06:00,
2013-10-05 17:11:00,86.8,35.1,30.01,NW,311,0.0,1.0,16,0.00,,,0.00,0077,Weather View 32 v70,2013-10-06 00:11:00,
2013-10-05 17:16:00,86.5,34.9,30.01,NW,311,0.0,0.0,16,0.00,,,0.00,0127,Weather View 32 v70,2013-10-06 00:16:00,
2013-10-05 17:21:00,86.3,34.7,30.01,NW,311,0.0,0.0,16,0.00,,,0.00,0033,Weather View 32 v70,2013-10-06 00:21:00,
2013-10-05 17:26:00,86.0,32.8,30.01,NW,310,0.0,0.0,15,0.00,,,0.00,0030,Weather View 32 v70,2013-10-06 00:26:00,
2013-10-05 17:31:00,85.7,34.2,30.01,NW,310,0.0,0.0,16,0.00,,,0.00,0028,Weather View 32 v70,2013-10-06 00:31:00,
2013-10-05 17:36:00,85.4,34.0,30.01,NW,310,0.0,0.0,16,0.00,,,0.00,0026,Weather View 32 v70,2013-10-06 00:36:00,
2013-10-05 17:41:00,85.1,33.7,30.01,NW,310,0.0,0.0,16,0.00,,,0.00,0023,Weather View 32 v70,2013-10-06 00:41:00,
2013-10-05 17:46:00,84.8,33.5,30.01,NW,311,0.0,0.0,16,0.00,,,0.00,0021,Weather View 32 v70,2013-10-06 00:46:00,
2013-10-05 17:51:00,84.5,34.8,30.01,NW,310,0.0,0.0,17,0.00,,,0.00,0019,Weather View 32 v70,2013-10-06 00:51:00,
2013-10-05 17:56:00,84.3,34.6,30.01,NW,309,0.0,0.0,17,0.00,,,0.00,0016,Weather View 32 v70,2013-10-06 00:56:00,
2013-10-05 18:01:00,83.9,34.3,30.01,NW,309,0.0,0.0,17,0.00,,,0.00,0014,Weather View 32 v70,2013-10-06 01:01:00,
2013-10-05 18:06:00,83.6,34.1,30.01,NNE,29,0.0,0.0,17,0.00,,,0.00,0014,Weather View 32 v70,2013-10-06 01:06:00,
2013-10-05 18:11:00,82.9,34.9,30.01,NNE,29,0.0,0.0,18,0.00,,,0.00,0012,Weather View 32 v70,2013-10-06 01:11:00,
2013-10-05 18:16:00,82.5,34.6,30.02,NNE,29,0.0,1.0,18,0.00,,,0.00,0011,Weather View 32 v70,2013-10-06 01:16:00,
2013-10-05 18:21:00,82.4,34.5,30.02,North,349,0.0,1.0,18,0.00,,,0.00,0009,Weather View 32 v70,2013-10-06 01:21:00,
2013-10-05 18:26:00,82.2,34.4,30.02,North,350,0.0,0.0,18,0.00,,,0.00,0007,Weather View 32 v70,2013-10-06 01:26:00,
2013-10-05 18:31:00,82.0,34.2,30.02,North,350,0.0,0.0,18,0.00,,,0.00,0005,Weather View 32 v70,2013-10-06 01:31:00,
2013-10-05 18:36:00,81.7,34.0,30.02,NNW,348,0.0,0.0,18,0.00,,,0.00,0000,Weather View 32 v70,2013-10-06 01:36:00,
2013-10-05 18:41:00,81.4,33.7,30.02,NNW,348,0.0,0.0,18,0.00,,,0.00,0000,Weather View 32 v70,2013-10-06 01:41:00,
2013-10-05 18:46:00,81.1,33.5,30.02,NNW,348,0.0,0.0,18,0.00,,,0.00,0000,Weather View 32 v70,2013-10-06 01:46:00,
2013-10-05 18:51:00,80.7,33.1,30.02,NNW,338,0.0,2.0,18,0.00,,,0.00,0000,Weather View 32 v70,2013-10-06 01:51:00,
2013-10-05 18:56:00,80.2,31.3,30.02,NNW,338,0.0,1.0,17,0.00,,,0.00,0000,Weather View 32 v70,2013-10-06 01:56:00,
2013-10-05 19:01:00,79.8,32.4,30.02,NNW,338,0.0,0.0,18,0.00,,,0.00,0000,Weather View 32 v70,2013-10-06 02:01:00,
2013-10-05 19:06:00,79.3,32.0,30.02,ENE,57,0.0,0.0,18,0.00,,,0.00,0000,Weather View 32 v70,2013-10-06 02:06:00,
2013-10-05 19:11:00,78.7,31.5,30.02,ENE,57,0.0,0.0,18,0.00,,,0.00,0000,Weather View 32 v70,2013-10-06 02:11:00,
2013-10-05 19:16:00,78.3,29.8,30.02,ENE,57,0.0,0.0,17,0.00,,,0.00,0000,Weather View 32 v70,2013-10-06 02:16:00,
2013-10-05 19:21:00,77.8,29.4,30.03,ENE,57,0.0,0.0,17,0.00,,,0.00,0000,Weather View 32 v70,2013-10-06 02:21:00,
2013-10-05 19:26:00,77.4,30.5,30.03,ENE,57,0.0,2.0,18,0.00,,,0.00,0000,Weather View 32 v70,2013-10-06 02:26:00,
2013-10-05 19:31:00,77.0,32.8,30.03,ENE,57,0.0,1.0,20,0.00,,,0.00,0000,Weather View 32 v70,2013-10-06 02:31:00,
2013-10-05 19:36:00,76.6,33.6,30.03,ENE,57,0.0,0.0,21,0.00,,,0.00,0000,Weather View 32 v70,2013-10-06 02:36:00,
2013-10-05 19:41:00,76.1,33.2,30.03,ENE,57,0.0,0.0,21,0.00,,,0.00,0000,Weather View 32 v70,2013-10-06 02:41:00,
2013-10-05 19:46:00,75.7,31.7,30.03,ENE,57,0.0,0.0,20,0.00,,,0.00,0000,Weather View 32 v70,2013-10-06 02:46:00,
2013-10-05 19:51:00,75.3,33.7,30.03,ENE,57,0.0,0.0,22,0.00,,,0.00,0000,Weather View 32 v70,2013-10-06 02:51:00,
2013-10-05 19:56:00,75.0,34.6,30.03,ENE,57,0.0,0.0,23,0.00,,,0.00,0000,Weather View 32 v70,2013-10-06 02:56:00,
2013-10-05 20:02:00,74.7,34.3,30.03,ENE,57,0.0,0.0,23,0.00,,,0.00,0000,Weather View 32 v70,2013-10-06 03:02:00,
2013-10-05 20:07:00,74.4,35.2,30.04,ENE,57,0.0,0.0,24,0.00,,,0.00,0000,Weather View 32 v70,2013-10-06 03:07:00,
2013-10-05 20:12:00,74.2,33.9,30.04,ENE,57,0.0,0.0,23,0.00,,,0.00,0000,Weather View 32 v70,2013-10-06 03:12:00,
2013-10-05 20:17:00,73.8,32.5,30.04,ENE,57,0.0,0.0,22,0.00,,,0.00,0000,Weather View 32 v70,2013-10-06 03:17:00,
2013-10-05 20:22:00,73.4,32.1,30.04,ENE,57,0.0,0.0,22,0.00,,,0.00,0000,Weather View 32 v70,2013-10-06 03:22:00,
2013-10-05 20:27:00,73.0,32.9,30.04,ENE,57,0.0,0.0,23,0.00,,,0.00,0000,Weather View 32 v70,2013-10-06 03:27:00,
2013-10-05 20:32:00,72.8,33.8,30.04,ENE,57,0.0,0.0,24,0.00,,,0.00,0000,Weather View 32 v70,2013-10-06 03:32:00,
2013-10-05 20:37:00,72.6,33.6,30.04,ENE,57,0.0,0.0,24,0.00,,,0.00,0000,Weather View 32 v70,2013-10-06 03:37:00,
2013-10-05 20:42:00,72.4,33.5,30.04,ENE,57,0.0,0.0,24,0.00,,,0.00,0000,Weather View 32 v70,2013-10-06 03:42:00,
2013-10-05 20:47:00,72.2,33.3,30.05,ENE,57,0.0,0.0,24,0.00,,,0.00,0000,Weather View 32 v70,2013-10-06 03:47:00,
2013-10-05 20:52:00,72.1,33.2,30.05,ENE,57,0.0,0.0,24,0.00,,,0.00,0000,Weather View 32 v70,2013-10-06 03:52:00,
2013-10-05 20:57:00,71.9,34.1,30.05,ENE,57,0.0,0.0,25,0.00,,,0.00,0000,Weather View 32 v70,2013-10-06 03:57:00,
2013-10-05 21:07:00,71.4,30.5,30.05,ENE,57,0.0,0.0,22,0.00,,,0.00,0000,Weather View 32 v70,2013-10-06 04:07:00,
2013-10-05 21:12:00,71.1,30.2,30.05,ENE,57,0.0,0.0,22,0.00,,,0.00,0000,Weather View 32 v70,2013-10-06 04:12:00,
2013-10-05 21:17:00,70.8,30.0,30.05,ENE,57,0.0,0.0,22,0.00,,,0.00,0000,Weather View 32 v70,2013-10-06 04:17:00,
2013-10-05 21:22:00,70.6,30.9,30.05,ENE,57,0.0,0.0,23,0.00,,,0.00,0000,Weather View 32 v70,2013-10-06 04:22:00,
2013-10-05 21:27:00,70.4,30.7,30.05,ENE,57,0.0,0.0,23,0.00,,,0.00,0000,Weather View 32 v70,2013-10-06 04:27:00,
2013-10-05 21:32:00,70.2,30.6,30.05,ENE,57,0.0,0.0,23,0.00,,,0.00,0000,Weather View 32 v70,2013-10-06 04:32:00,
2013-10-05 21:37:00,70.0,30.4,30.06,ENE,57,0.0,0.0,23,0.00,,,0.00,0000,Weather View 32 v70,2013-10-06 04:37:00,
2013-10-05 21:42:00,69.7,31.2,30.06,ENE,57,0.0,0.0,24,0.00,,,0.00,0000,Weather View 32 v70,2013-10-06 04:42:00,
2013-10-05 21:47:00,69.5,31.0,30.06,ENE,57,0.0,0.0,24,0.00,,,0.00,0000,Weather View 32 v70,2013-10-06 04:47:00,
2013-10-05 21:52:00,69.4,32.0,30.06,ENE,57,0.0,0.0,25,0.00,,,0.00,0000,Weather View 32 v70,2013-10-06 04:52:00,
2013-10-05 21:57:00,69.3,30.9,30.06,ENE,57,0.0,0.0,24,0.00,,,0.00,0000,Weather View 32 v70,2013-10-06 04:57:00,
2013-10-05 22:02:00,69.1,30.7,30.06,ENE,57,0.0,0.0,24,0.00,,,0.00,0000,Weather View 32 v70,2013-10-06 05:02:00,
2013-10-05 22:07:00,69.0,30.6,30.06,ENE,57,0.0,0.0,24,0.00,,,0.00,0000,Weather View 32 v70,2013-10-06 05:07:00,
2013-10-05 22:12:00,69.1,30.7,30.06,ENE,57,0.0,0.0,24,0.00,,,0.00,0000,Weather View 32 v70,2013-10-06 05:12:00,
2013-10-05 22:17:00,69.2,31.8,30.06,ENE,57,0.0,0.0,25,0.00,,,0.00,0000,Weather View 32 v70,2013-10-06 05:17:00,
2013-10-05 22:22:00,69.0,30.6,30.06,ENE,57,0.0,0.0,24,0.00,,,0.00,0000,Weather View 32 v70,2013-10-06 05:22:00,
2013-10-05 22:27:00,68.8,29.4,30.06,ENE,57,0.0,0.0,23,0.00,,,0.00,0000,Weather View 32 v70,2013-10-06 05:27:00,
2013-10-05 22:32:00,68.7,31.4,30.06,NNE,13,2.0,4.0,25,0.00,,,0.00,0000,Weather View 32 v70,2013-10-06 05:32:00,
2013-10-05 22:37:00,68.5,31.2,30.06,North,360,0.0,0.0,25,0.00,,,0.00,0000,Weather View 32 v70,2013-10-06 05:37:00,
2013-10-05 22:42:00,68.3,31.0,30.06,North,360,0.0,0.0,25,0.00,,,0.00,0000,Weather View 32 v70,2013-10-06 05:42:00,
2013-10-05 22:47:00,68.1,30.9,30.06,North,360,0.0,0.0,25,0.00,,,0.00,0000,Weather View 32 v70,2013-10-06 05:47:00,
2013-10-05 22:52:00,68.0,29.8,30.06,North,360,0.0,0.0,24,0.00,,,0.00,0000,Weather View 32 v70,2013-10-06 05:52:00,
2013-10-05 22:57:00,67.9,28.6,30.06,North,360,0.0,1.0,23,0.00,,,0.00,0000,Weather View 32 v70,2013-10-06 05:57:00,
2013-10-05 23:02:00,67.8,29.6,30.05,North,360,0.0,0.0,24,0.00,,,0.00,0000,Weather View 32 v70,2013-10-06 06:02:00,
2013-10-05 23:07:00,67.6,29.4,30.05,North,360,0.0,0.0,24,0.00,,,0.00,0000,Weather View 32 v70,2013-10-06 06:07:00,
2013-10-05 23:12:00,67.3,28.1,30.05,North,360,0.0,0.0,23,0.00,,,0.00,0000,Weather View 32 v70,2013-10-06 06:12:00,
2013-10-05 23:17:00,67.1,28.0,30.05,North,360,0.0,0.0,23,0.00,,,0.00,0000,Weather View 32 v70,2013-10-06 06:17:00,
2013-10-05 23:22:00,66.9,26.7,30.05,North,360,0.0,1.0,22,0.00,,,0.00,0000,Weather View 32 v70,2013-10-06 06:22:00,
2013-10-05 23:27:00,66.8,26.6,30.05,North,360,0.0,0.0,22,0.00,,,0.00,0000,Weather View 32 v70,2013-10-06 06:27:00,
2013-10-05 23:32:00,66.6,27.6,30.05,North,360,0.0,0.0,23,0.00,,,0.00,0000,Weather View 32 v70,2013-10-06 06:32:00,
2013-10-05 23:37:00,66.5,26.4,30.05,North,360,0.0,0.0,22,0.00,,,0.00,0000,Weather View 32 v70,2013-10-06 06:37:00,
2013-10-05 23:42:00,66.4,26.3,30.05,North,360,0.0,0.0,22,0.00,,,0.00,0000,Weather View 32 v70,2013-10-06 06:42:00,
2013-10-05 23:47:00,66.3,26.2,30.05,North,360,0.0,0.0,22,0.00,,,0.00,0000,Weather View 32 v70,2013-10-06 06:47:00,
2013-10-05 23:52:00,66.1,27.1,30.05,North,360,0.0,0.0,23,0.00,,,0.00,0000,Weather View 32 v70,2013-10-06 06:52:00,
2013-10-05 23:57:00,65.9,27.0,30.05,North,360,0.0,0.0,23,0.00,,,0.00,0000,Weather View 32 v70,2013-10-06 06:57:00,